DW6536 Weather Reports


time (UTC)temp
C
wind
direction
speed
KPH
gust
KPH
rain 1hr
cm
rain 24hr
cm
rain mn
cm
humidity
%
barometer
mb
20230208163009 6 314 4.8 0.0 0.00 0.00 0.41 95 1017.7
20230208161507 6 325 3.2 0.0 0.00 0.00 0.38 95 1017.5
20230208160005 6 333 3.2 0.0 0.00 0.00 0.33 95 1017.5
20230208154504 6 325 3.2 0.0 0.00 0.00 0.33 94 1017.3
20230208153002 7 312 4.8 0.0 0.00 0.00 0.33 94 1017.0
20230208151600 7 267 3.2 0.0 0.00 0.00 0.33 95 1017.0
20230208150107 7 53 3.2 0.0 0.00 0.00 0.33 95 1016.5
20230208144621 7 39 3.2 0.0 0.00 0.00 0.33 95 1016.9
20230208143102 7 323 1.6 0.0 0.00 0.00 0.33 96 1016.7
20230208141603 6 6 3.2 0.0 0.00 0.00 0.33 96 1016.4
20230208140056 6 4 3.2 0.0 0.00 0.00 0.33 95 1016.0
20230208134556 6 338 3.2 0.0 0.00 0.00 0.33 95 1016.5
20230208133053 7 322 3.2 0.0 0.00 0.00 0.33 95 1016.0
20230208131550 7 325 3.2 0.0 0.00 0.00 0.33 96 1015.7
20230208130049 7 297 1.6 0.0 0.00 0.00 0.33 96 1015.5
20230208124548 7 333 3.2 0.0 0.00 0.00 0.33 96 1015.4
20230208123047 7 326 1.6 0.0 0.00 0.00 0.33 96 1015.3
20230208121559 7 304 1.6 0.0 0.00 0.00 0.33 96 1015.1
20230208120049 7 293 1.6 0.0 0.00 0.00 0.33 96 1014.6
20230208114545 7 6 1.6 0.0 0.00 0.00 0.33 96 1014.3
20230208113046 7 311 1.6 0.0 0.00 0.00 0.33 96 1014.6
20230208111559 7 10 1.6 0.0 0.00 0.00 0.33 96 1014.6
20230208110046 7 292 1.6 0.0 0.00 0.00 0.33 96 1014.5
20230208104546 7 343 1.6 0.0 0.00 0.00 0.33 96 1014.8
20230208103043 7 333 1.6 0.0 0.00 0.00 0.30 96 1014.6
20230208101541 7 1 3.2 0.0 0.00 0.00 0.30 96 1014.5
20230208100040 7 326 3.2 0.0 0.00 0.00 0.30 96 1014.5
20230208094542 7 333 3.2 0.0 0.00 0.00 0.28 96 1014.3
20230208093039 7 338 3.2 0.0 0.00 0.00 0.28 96 1014.4
20230208091536 7 360 3.2 0.0 0.00 0.00 0.28 96 1014.2
20230208090036 7 8 3.2 0.0 0.00 0.00 0.28 96 1014.3
20230208084539 7 353 3.2 0.0 0.00 0.00 0.28 96 1014.9
20230208083028 8 12 3.2 0.0 0.00 0.00 0.28 96 1015.2
20230208081530 8 349 3.2 0.0 0.00 0.00 0.28 96 1015.2
20230208080036 8 27 3.2 0.0 0.00 0.00 0.28 96 1015.2
20230208074523 8 305 3.2 0.0 0.00 0.00 0.28 96 1015.3
20230208073021 8 355 3.2 0.0 0.00 0.00 0.28 96 1015.5
20230208071519 8 357 3.2 0.0 0.00 0.00 0.28 96 1015.6
20230208070018 8 307 3.2 0.0 0.00 0.00 0.28 96 1015.6
20230208064536 8 317 1.6 0.0 0.00 0.00 0.25 96 1015.6
20230208063032 8 352 3.2 0.0 0.00 0.00 0.23 95 1015.8
20230208061513 8 338 3.2 0.0 0.00 0.00 0.18 95 1015.8
20230208060009 8 15 3.2 0.0 0.00 0.00 0.00 95 1015.8
20230208054515 9 359 3.2 0.0 0.00 0.00 0.84 95 1016.0
20230208053028 9 23 4.8 0.0 0.00 0.00 0.84 95 1015.6
20230208051519 9 358 4.8 0.0 0.00 0.00 0.84 95 1015.5
20230208050009 9 307 4.8 0.0 0.00 0.00 0.81 95 1015.7
20230208044508 9 353 3.2 0.0 0.00 0.00 0.71 95 1015.8
20230208043001 10 14 1.6 0.0 0.00 0.00 0.71 96 1015.8
20230208041604 10 343 3.2 0.0 0.00 0.00 0.64 95 1015.5
20230208040127 10 108 3.2 0.0 0.00 0.00 0.64 95 1015.3
20230208034556 10 290 1.6 0.0 0.00 0.00 0.61 95 1015.4
20230208033056 10 322 3.2 0.0 0.00 0.00 0.61 95 1015.4
20230208031603 10 343 4.8 0.0 0.00 0.00 0.61 95 1015.2
20230208030050 10 11 3.2 0.0 0.00 0.00 0.61 95 1015.1
20230208024548 11 2 4.8 0.0 0.00 0.00 0.58 95 1014.8
20230208023045 11 324 3.2 0.0 0.00 0.00 0.58 95 1014.7
20230208021542 11 343 4.8 0.0 0.00 0.00 0.58 94 1014.5
20230208020042 12 307 3.2 0.0 0.00 0.00 0.56 94 1014.3
20230208014536 12 338 3.2 0.0 0.00 0.00 0.53 93 1014.2
20230208013030 14 270 4.8 0.0 0.00 0.00 0.51 90 1013.9
20230208011533 18 311 1.6 0.0 0.00 0.00 0.51 96 1013.5
20230208010029 18 276 3.2 0.0 0.00 0.00 0.48 96 1012.9
20230208004527 18 151 3.2 0.0 0.00 0.00 0.48 96 1012.7
20230208003029 18 158 3.2 0.0 0.00 0.00 0.48 96 1012.8
20230208001526 18 172 3.2 0.0 0.00 0.00 0.43 95 1012.6
20230208000024 18 120 3.2 0.0 0.00 0.00 0.41 95 1012.4
20230207234529 18 103 4.8 0.0 0.00 0.00 0.38 95 1012.2
20230207233024 19 126 3.2 0.0 0.00 0.00 0.38 95 1012.5
20230207231524 19 183 1.6 0.0 0.00 0.00 0.38 95 1012.3
20230207230023 19 185 0.0 0.0 0.00 0.00 0.38 95 1012.4
20230207224522 19 135 0.0 0.0 0.00 0.00 0.36 94 1012.4
20230207223033 19 162 0.0 0.0 0.00 0.00 0.30 93 1012.3
20230207221525 20 145 1.6 0.0 0.00 0.00 0.10 91 1012.2
20230207220020 20 122 1.6 0.0 0.00 0.00 0.08 90 1012.2
20230207214520 20 129 1.6 0.0 0.00 0.00 0.08 88 1012.1
20230207213020 20 143 0.0 0.0 0.00 0.00 0.08 91 1012.3
20230207211518 20 130 0.0 0.0 0.00 0.00 0.08 91 1012.1
20230207210023 20 123 1.6 0.0 0.00 0.00 0.08 91 1012.4
20230207204518 20 141 1.6 0.0 0.00 0.00 0.08 91 1012.2
20230207203018 20 124 1.6 0.0 0.00 0.00 0.08 89 1012.6
20230207201517 21 162 3.2 0.0 0.00 0.00 0.03 84 1012.7
20230207200016 21 135 1.6 0.0 0.00 0.00 0.03 85 1012.7
20230207194516 21 154 3.2 0.0 0.00 0.00 0.03 85 1012.9
20230207193014 21 163 1.6 0.0 0.00 0.00 0.03 85 1013.0
20230207191519 20 211 1.6 0.0 0.00 0.00 0.03 85 1013.1
20230207190012 20 158 1.6 0.0 0.00 0.00 0.03 86 1013.3
20230207184524 20 134 1.6 0.0 0.00 0.00 0.03 87 1013.7
20230207183009 20 120 0.0 0.0 0.00 0.00 0.03 88 1014.0
20230207181506 20 121 1.6 0.0 0.00 0.00 0.03 89 1014.1
20230207180008 20 213 1.6 0.0 0.00 0.00 0.03 89 1014.2
20230207174513 20 143 1.6 0.0 0.00 0.00 0.03 90 1014.2
20230207173007 19 198 0.0 0.0 0.00 0.00 0.03 92 1014.2
20230207171502 19 158 1.6 0.0 0.00 0.00 0.03 93 1014.3
20230207170109 19 226 1.6 0.0 0.00 0.00 0.03 93 1014.2
20230207164605 18 171 0.0 0.0 0.00 0.00 0.03 92 1014.3
20230207163108 19 172 1.6 0.0 0.00 0.00 0.03 90 1014.3